Powrót do katalogu

METEOR 3-3

AktywnyPogodaPO
NORAD 20305·PAYLOAD·🇷🇺 Russia

Wystrzelony Oct 24, 1989 z Plesetsk Cosmodrome

Loading…

Następne Przeloty (najbliższe 24 godziny)

TLE

ŚwieżeSource: Space-Track

Epoka: Sep 14, 2026, 08:43 UTC

1 20305U 89086A   26257.36334194 -.00000736  00000-0 -23265-2 0  9994
2 20305  82.5508  45.2889 0006047 312.6834  73.7078 13.04704566758244

Śledź METEOR 3-3 w czasie rzeczywistym z AllMySat

Download on the App Store